{"data":{"norad_id":57880,"intl_designator":"2023-144S","name":"STARLINK-30436","alt_names":[],"object_type":"PAYLOAD","status":"ACTIVE","operator":null,"country":"US","launch_date":"2023-09-16","launch_site_code":"AFETR","launch_vehicle":null,"mission":null,"orbit_class":"UNKNOWN","rcs_meters":null,"size_class":null,"mass_kg":null,"dimensions":null,"purposes":["comms"],"wikipedia_slug":null,"has_3d_model":false,"image_url":null,"decayed_at":null,"tle_current":{"epoch":"2026-05-25T05:10:51.223296Z","epoch_age_seconds":50419,"freshness":"FRESH","line1":"1 57880U 23144S   26145.21587064 -.00000253  00000+0  33680-6 0  9999","line2":"2 57880  43.0022 212.8024 0001613 269.0908  90.9759 15.27568755149346","mean_motion":15.27568755,"eccentricity":0.0001613,"inclination_deg":43.0022,"raan_deg":212.8024,"arg_perigee_deg":269.0908,"mean_anomaly_deg":90.9759,"bstar":3.368e-7,"rev_number":14934,"period_min":94.267442646141,"perigee_km":481.97605307303,"apogee_km":484.18948257013,"semimajor_km":6861.2197678216,"source":"CELESTRAK","updated_at":"2026-05-25T13:38:18.449991Z"}}}